When you browse on this site, cookies collect data to enhance your experience and personalize the content and advertising you see.
Visit our Privacy Policy to learn more. By continuing to use the site, you agree to this use of cookies and data.
  • In Latvia
  • List of Countries
  • For 7 days
  • Water Temperature
  • Weather Map
  • Weather Widgets
  • user-avatar
    Login

    Hourly Weather Neuquén

    Today, 29 May, Friday

    Time Temperature Precipitation Wind Pressure Humidity
    00:00 +10°C° 0.1 mm 4 mps 736 mmHg 68%
    01:00 +9°C° 0.1 mm 3 mps 736 mmHg 73%
    02:00 +9°C° 0.5 mm 3 mps 736 mmHg 76%
    03:00 +9°C° 0.5 mm 3 mps 736 mmHg 78%
    04:00 +9°C° 0.5 mm 3 mps 736 mmHg 81%
    05:00 +8°C° 1.1 mm 3 mps 736 mmHg 82%
    06:00 +7°C° 1.1 mm 4 mps 737 mmHg 83%
    07:00 +7°C° 1.1 mm 4 mps 737 mmHg 83%
    08:00 +8°C° 0.7 mm 3 mps 737 mmHg 80%
    09:00 +8°C° 0.7 mm 3 mps 738 mmHg 77%
    10:00 +9°C° 0.7 mm 2 mps 738 mmHg 73%
    11:00 +8°C° 0.5 mm 2 mps 738 mmHg 74%
    12:00 +8°C° 0.5 mm 2 mps 738 mmHg 75%
    13:00 +8°C° 0.5 mm 2 mps 738 mmHg 76%
    14:00 +8°C° 0.5 mm 3 mps 738 mmHg 78%
    15:00 +8°C° 0.5 mm 3 mps 738 mmHg 79%
    16:00 +6°C° 0.5 mm 4 mps 738 mmHg 81%
    17:00 +6°C° 0.8 mm 4 mps 739 mmHg 81%
    18:00 +6°C° 0.8 mm 4 mps 739 mmHg 82%
    19:00 +6°C° 0.8 mm 4 mps 740 mmHg 82%
    20:00 +6°C° 0.3 mm 4 mps 740 mmHg 82%
    21:00 +6°C° 0.3 mm 4 mps 740 mmHg 82%
    22:00 +6°C° 0.3 mm 4 mps 740 mmHg 82%
    23:00 +6°C° 0.3 mm 4 mps 740 mmHg 83%

    Tomorrow, 30 May, Saturday

    Time Temperature Precipitation Wind Pressure Humidity
    00:00 +6°C° 0.3 mm 4 mps 740 mmHg 84%
    01:00 +6°C° 0.3 mm 4 mps 740 mmHg 84%
    02:00 +6°C° 0.6 mm 5 mps 740 mmHg 84%
    03:00 +6°C° 0.6 mm 5 mps 740 mmHg 83%
    04:00 +6°C° 0.6 mm 5 mps 740 mmHg 83%
    05:00 +6°C° 0 mm 5 mps 741 mmHg 80%
    06:00 +6°C° 0 mm 5 mps 741 mmHg 77%
    07:00 +7°C° 0 mm 4 mps 741 mmHg 74%
    08:00 +7°C° 0 mm 4 mps 742 mmHg 68%
    09:00 +8°C° 0 mm 4 mps 742 mmHg 61%
    10:00 +8°C° 0 mm 4 mps 742 mmHg 54%
    11:00 +10°C° 0 mm 4 mps 742 mmHg 52%
    12:00 +10°C° 0 mm 4 mps 741 mmHg 49%
    13:00 +11°C° 0 mm 3 mps 741 mmHg 46%
    14:00 +11°C° 0 mm 3 mps 741 mmHg 47%
    15:00 +10°C° 0 mm 3 mps 740 mmHg 47%
    16:00 +10°C° 0 mm 3 mps 740 mmHg 47%
    17:00 +9°C° 0 mm 3 mps 740 mmHg 50%
    18:00 +9°C° 0 mm 3 mps 740 mmHg 53%
    19:00 +8°C° 0 mm 2 mps 740 mmHg 56%
    20:00 +7°C° 0 mm 2 mps 740 mmHg 58%
    21:00 +7°C° 0 mm 2 mps 740 mmHg 59%
    22:00 +8°C° 0 mm 1 mps 740 mmHg 61%
    23:00 +6°C° 0 mm 2 mps 740 mmHg 63%

    Day after tomorrow, 31 May, Sunday

    Time Temperature Precipitation Wind Pressure Humidity
    00:00 +6°C° 0 mm 2 mps 739 mmHg 66%
    01:00 +5°C° 0 mm 3 mps 739 mmHg 68%
    02:00 +5°C° 0 mm 3 mps 739 mmHg 69%
    03:00 +6°C° 0 mm 2 mps 738 mmHg 69%
    04:00 +5°C° 0 mm 2 mps 738 mmHg 69%
    05:00 +5°C° 0 mm 2 mps 738 mmHg 68%
    06:00 +5°C° 0 mm 2 mps 738 mmHg 67%
    07:00 +5°C° 0 mm 2 mps 738 mmHg 66%
    08:00 +6°C° 0 mm 2 mps 739 mmHg 59%
    09:00 +8°C° 0 mm 2 mps 739 mmHg 52%
    10:00 +9°C° 0 mm 2 mps 739 mmHg 45%
    11:00 +10°C° 0 mm 2 mps 739 mmHg 42%
    12:00 +12°C° 0 mm 2 mps 738 mmHg 38%
    13:00 +13°C° 0 mm 2 mps 738 mmHg 35%
    14:00 +13°C° 0 mm 2 mps 738 mmHg 37%
    15:00 +12°C° 0 mm 2 mps 738 mmHg 40%
    16:00 +12°C° 0 mm 1 mps 738 mmHg 42%
    17:00 +11°C° 0 mm 1 mps 738 mmHg 45%
    18:00 +11°C° 0 mm 1 mps 738 mmHg 47%
    19:00 +10°C° 0 mm 1 mps 738 mmHg 50%
    20:00 +9°C° 0 mm 1 mps 738 mmHg 51%
    21:00 +9°C° 0 mm 1 mps 738 mmHg 52%
    22:00 +8°C° 0 mm 1 mps 738 mmHg 53%
    23:00 +8°C° 0 mm 1 mps 738 mmHg 54%

    1 June, Monday

    Time Temperature Precipitation Wind Pressure Humidity
    00:00 +8°C° 0 mm 1 mps 738 mmHg 54%
    01:00 +7°C° 0 mm 1 mps 738 mmHg 55%
    02:00 +7°C° 0 mm 1 mps 737 mmHg 55%
    03:00 +7°C° 0 mm 1 mps 737 mmHg 55%
    04:00 +7°C° 0 mm 1 mps 737 mmHg 55%
    05:00 +7°C° 0 mm 1 mps 737 mmHg 55%
    06:00 +7°C° 0 mm 1 mps 737 mmHg 55%
    07:00 +7°C° 0 mm 1 mps 737 mmHg 55%
    08:00 +8°C° 0 mm 2 mps 737 mmHg 48%
    09:00 +10°C° 0 mm 2 mps 737 mmHg 42%
    10:00 +12°C° 0 mm 2 mps 737 mmHg 36%
    11:00 +12°C° 0 mm 3 mps 736 mmHg 35%
    12:00 +14°C° 0 mm 3 mps 736 mmHg 35%
    13:00 +15°C° 0 mm 4 mps 735 mmHg 34%
    14:00 +14°C° 0 mm 4 mps 735 mmHg 36%
    15:00 +13°C° 0 mm 3 mps 735 mmHg 38%
    16:00 +13°C° 0 mm 3 mps 734 mmHg 40%
    17:00 +12°C° 0 mm 3 mps 734 mmHg 42%
    18:00 +12°C° 0 mm 2 mps 734 mmHg 44%
    19:00 +12°C° 0 mm 2 mps 734 mmHg 46%
    20:00 +10°C° 0 mm 2 mps 734 mmHg 47%
    21:00 +10°C° 0 mm 2 mps 734 mmHg 48%
    22:00 +10°C° 0 mm 2 mps 734 mmHg 50%
    23:00 +9°C° 0 mm 2 mps 733 mmHg 51%

    2 June, Tuesday

    Time Temperature Precipitation Wind Pressure Humidity
    00:00 +10°C° 0 mm 1 mps 733 mmHg 52%
    01:00 +10°C° 0 mm 1 mps 732 mmHg 53%
    02:00 +10°C° 0 mm 1 mps 732 mmHg 55%
    03:00 +9°C° 0 mm 1 mps 731 mmHg 56%
    04:00 +9°C° 0 mm 1 mps 731 mmHg 57%
    05:00 +9°C° 0 mm 1 mps 731 mmHg 59%
    06:00 +9°C° 0 mm 1 mps 731 mmHg 61%
    07:00 +8°C° 0 mm 1 mps 731 mmHg 62%
    08:00 +10°C° 0 mm 1 mps 731 mmHg 56%
    09:00 +12°C° 0 mm 2 mps 731 mmHg 50%
    10:00 +13°C° 0 mm 3 mps 731 mmHg 43%
    11:00 +14°C° 0 mm 4 mps 731 mmHg 43%
    12:00 +14°C° 0 mm 4 mps 731 mmHg 43%
    13:00 +14°C° 0 mm 5 mps 730 mmHg 43%
    14:00 +14°C° 0 mm 4 mps 731 mmHg 44%
    15:00 +13°C° 0 mm 3 mps 731 mmHg 46%
    16:00 +13°C° 0 mm 2 mps 731 mmHg 47%
    17:00 +13°C° 0.2 mm 2 mps 732 mmHg 50%
    18:00 +12°C° 0.2 mm 2 mps 733 mmHg 53%
    19:00 +12°C° 0.2 mm 2 mps 734 mmHg 57%
    20:00 +10°C° 0.1 mm 2 mps 735 mmHg 57%
    21:00 +10°C° 0.1 mm 2 mps 736 mmHg 58%
    22:00 +9°C° 0.1 mm 2 mps 736 mmHg 59%
    23:00 +9°C° 0 mm 3 mps 737 mmHg 61%

    3 June, Wednesday

    Time Temperature Precipitation Wind Pressure Humidity
    00:00 +8°C° 0 mm 4 mps 738 mmHg 63%
    01:00 +7°C° 0 mm 5 mps 738 mmHg 64%
    02:00 +7°C° 0 mm 5 mps 739 mmHg 65%
    03:00 +7°C° 0 mm 5 mps 739 mmHg 66%
    04:00 +7°C° 0 mm 6 mps 740 mmHg 67%
    05:00 +7°C° 0 mm 6 mps 741 mmHg 68%
    06:00 +6°C° 0 mm 7 mps 741 mmHg 68%
    07:00 +5°C° 0 mm 7 mps 742 mmHg 68%
    08:00 +6°C° 0 mm 7 mps 743 mmHg 67%
    09:00 +6°C° 0 mm 7 mps 743 mmHg 66%
    10:00 +8°C° 0 mm 7 mps 744 mmHg 64%
    11:00 +8°C° 0 mm 6 mps 743 mmHg 63%
    12:00 +9°C° 0 mm 5 mps 743 mmHg 62%
    13:00 +9°C° 0 mm 5 mps 743 mmHg 61%
    14:00 +10°C° 0 mm 4 mps 743 mmHg 62%
    15:00 +10°C° 0 mm 3 mps 742 mmHg 62%
    16:00 +10°C° 0 mm 2 mps 742 mmHg 63%
    17:00 +10°C° 0 mm 1 mps 742 mmHg 66%
    18:00 +10°C° 0 mm 1 mps 742 mmHg 70%
    19:00 +8°C° 0 mm 0 mps 742 mmHg 73%
    20:00 +9°C° 0 mm 1 mps 742 mmHg 73%
    21:00 +9°C° 0 mm 1 mps 742 mmHg 72%
    22:00 +8°C° 0 mm 1 mps 742 mmHg 72%
    23:00 +7°C° 0 mm 2 mps 741 mmHg 73%
    Show more